FW2350 Weather Reports


time (UTC)temp
F
wind
direction
speed
knots
gust
knots
rain 1hr
in
rain 24hr
in
rain mn
in
humidity
%
barometer
mb
20260506160324 58 69 4.3 9.6 0.00 0.00 0.00 50 1013.0
20260506153319 56 22 3.5 7.0 0.00 0.00 0.00 55 1013.1
20260506150353 59 17 7.0 11.3 0.00 0.00 0.00 46 1013.1
20260506143325 57 25 5.2 8.7 0.00 0.00 0.00 52 1013.3
20260506140319 57 13 3.5 8.7 0.00 0.00 0.00 53 1013.4
20260506133332 60 13 5.2 11.3 0.00 0.00 0.00 51 1013.4
20260506130325 58 17 7.0 12.2 0.00 0.00 0.00 54 1013.5
20260506123320 58 31 6.1 13.9 0.00 0.00 0.00 56 1013.4
20260506120330 56 15 5.2 11.3 0.00 0.00 0.00 58 1013.7
20260506113324 55 11 6.1 11.3 0.00 0.00 0.00 59 1013.8
20260506110338 54 51 6.1 9.6 0.00 0.00 0.00 62 1013.9
20260506103332 52 19 6.1 11.3 0.00 0.00 0.00 64 1014.2
20260506100327 50 344 5.2 8.7 0.00 0.00 0.00 70 1014.1
20260506093322 48 360 7.0 13.0 0.00 0.00 0.00 72 1014.1
20260506090316 47 34 3.5 8.7 0.00 0.00 0.00 77 1014.1
20260506083329 46 61 2.6 7.0 0.00 0.00 0.00 79 1014.0
20260506080323 45 44 5.2 8.7 0.00 0.00 0.00 81 1014.0
20260506073316 45 26 5.2 8.7 0.00 0.00 0.00 82 1013.9
20260506070330 45 19 5.2 7.8 0.00 0.00 0.00 84 1013.8
20260506060319 44 30 5.2 7.8 0.00 0.00 0.00 84 1013.5
20260506050325 44 28 4.3 6.1 0.00 0.00 0.00 83 1013.4
20260506043320 44 44 1.7 6.1 0.00 0.00 0.00 82 1013.3
20260506040314 44 32 4.3 7.8 0.00 0.00 0.00 81 1013.2
20260506033329 45 45 4.3 7.8 0.00 0.00 0.00 82 1013.4
20260506030321 45 29 3.5 6.1 0.00 0.00 0.00 82 1013.4
20260506023332 46 49 5.2 9.6 0.00 0.00 0.00 84 1013.4
20260506020325 47 67 3.5 7.8 0.00 0.00 0.00 84 1013.3
20260506013320 47 65 3.5 5.2 0.00 0.00 0.00 82 1013.4
20260506010335 47 74 3.5 9.6 0.00 0.00 0.00 81 1013.5
20260506003327 48 42 5.2 9.6 0.00 0.00 0.00 79 1013.6
20260506000322 48 49 7.0 10.4 0.00 0.00 0.00 79 1013.5
20260505233334 49 40 5.2 9.6 0.00 0.00 0.00 82 1013.4
20260505230344 50 57 6.1 10.4 0.00 0.00 0.00 82 1013.5
20260505223336 51 59 5.2 9.6 0.00 0.00 0.00 81 1013.4
20260505220329 51 19 3.5 9.6 0.00 0.00 0.00 82 1013.2
20260505213325 52 16 7.0 10.4 0.00 0.00 0.00 80 1013.1
20260505210337 52 36 6.1 10.4 0.00 0.00 0.00 73 1013.0
20260505203330 53 355 4.3 7.8 0.00 0.00 0.00 72 1012.9
20260505200325 53 13 3.5 7.0 0.00 0.00 0.00 71 1012.7
20260505193319 54 344 4.3 9.6 0.00 0.00 0.00 69 1012.5
20260505190313 55 9 4.3 8.7 0.00 0.00 0.00 69 1012.3
20260505183324 55 5 5.2 10.4 0.00 0.00 0.00 67 1012.1
20260505180339 56 14 5.2 9.6 0.00 0.00 0.00 64 1012.2
20260505173332 57 44 5.2 7.8 0.00 0.00 0.00 63 1012.2
20260505170327 57 19 5.2 10.4 0.00 0.00 0.00 63 1012.3
20260505163322 58 58 4.3 9.6 0.00 0.00 0.00 63 1012.3